Volver al catálogo

STARLINK-4471

ActivoComunicacionesSSO
NORAD 53664·PAYLOAD·🇺🇸 United States

Lanzado Aug 31, 2022 desde Vandenberg Space Force Base

Loading…

Próximos Pases (próximas 24 horas)

TLE

ActualizadoSource: CelesTrak SupGP

Época: Sep 15, 2026, 01:29 UTC

1 53664C 22105S   26258.06229167  .00083309  00000+0  25874-2 0  2588
2 53664  97.2836 134.9066 0001721  93.6607  58.0813 15.33380284    15

Sigue STARLINK-4471 en tiempo real con AllMySat

Download on the App Store